Regional Weather Roundup
Issued by NWS Little Rock, AR

Home | Current Version | Previous Version | Graphics & Text | Print | Product List | Glossary On
Versions: 1 2 3 4 5 6 7 8 9 10 11 12 13 14 15 16 17 18 19 20 21 22 23 24 25 26 27 28 29 30 31 32 33 34 35 36 37 38 39 40 41 42 43 44 45 46 47 48 49 50
000
ASUS44 KLZK 261105
RWRLZK

WEATHER ROUNDUP FOR ARKANSAS
NATIONAL WEATHER SERVICE LITTLE ROCK AR
600 AM CDT TUE JUL 26 2016

NOTE: "FAIR" INDICATES FEW OR NO CLOUDS BELOW 12,000 FEET WITH NO
SIGNIFICANT WEATHER AND/OR OBSTRUCTIONS TO VISIBILITY.

ARZ001-003-010-029-261200-
NORTHWEST ARKANSAS

CITY           SKY/WX    TMP DP  RH WIND       PRES   REMARKS
FAYETTEVILLE   PTCLDY    71  71 100 CALM      30.02R FOG
FORT SMITH     CLOUDY    75  70  84 E5        29.97S
HARRISON       FOG       73  73 100 CALM      30.03S VSB 1/2
BENTONVILLE    CLOUDY    73  70  88 CALM      30.02S
ROGERS         CLOUDY    74  72  93 E3        30.03S
SILOAM SPGS    CLOUDY    73  64  73 CALM      30.02S
HIGHFILL       CLOUDY    75  73  93 CALM      30.01S
SPRINGDALE     CLEAR     73  73 100 CALM      30.04
$$

ARZ004-005-016-261200-
NORTH CENTRAL ARKANSAS

CITY           SKY/WX    TMP DP  RH WIND       PRES   REMARKS
BATESVILLE     CLOUDY    73  72  94 CALM      30.00S
FLIPPIN        CLOUDY    73  70  88 SE3       29.99R
MTN HOME       CLOUDY    73  73 100 CALM      30.01S
$$

ARZ040-041-261200-
WEST CENTRAL ARKANSAS

CITY           SKY/WX    TMP DP  RH WIND       PRES   REMARKS
MENA           PTCLDY    73  73 100 CALM      30.01S
MOUNT IDA      CLOUDY    73  73 100 CALM      29.97R FOG
$$

ARZ009-017-025-026-028-261200-
NORTHEAST ARKANSAS

CITY           SKY/WX    TMP DP  RH WIND       PRES   REMARKS
CORNING          N/A     75  75 100 E3        30.01R
JONESBORO      CLEAR     76  74  93 CALM      29.99R
NEWPORT        FOG       76  76 100 CALM      30.00R VSB 1/4
WALNUT RIDGE   CLEAR     75  73  94 NE5       29.98R
BLYTHEVILLE    CLEAR     75  73  93 E3        30.00R
$$

ARZ022-023-033-042-044-261200-
CENTRAL ARKANSAS

CITY           SKY/WX    TMP DP  RH WIND       PRES   REMARKS
LITTLE ROCK    MOCLDY    80  75  84 E3        29.98R HX  85
N LITTLE ROCK    N/A     76  73  92 CALM      29.95S
JACKSONVILLE   CLEAR     75  75  99 CALM      29.97S
SEARCY         CLEAR     75  74  96 CALM      30.00R
HOT SPRINGS    PTCLDY    76  75  97 E3        29.99R
RUSSELLVILLE   MOCLDY    75  73  93 CALM      29.98R
$$

ARZ036-261200-
EAST ARKANSAS

CITY           SKY/WX    TMP DP  RH WIND       PRES   REMARKS
WEST MEMPHIS   CLEAR     75  74  96 CALM      29.98R
$$

ARZ050-053-066-070-073-261200-
SOUTHWEST ARKANSAS

CITY           SKY/WX    TMP DP  RH WIND       PRES   REMARKS
CAMDEN         PTCLDY    73  72  94 CALM      29.97R FOG
TEXARKANA      CLEAR     76  74  93 E3        29.97R
EL DORADO      PTCLDY    73  73 100 CALM      29.97R
DE QUEEN       CLEAR     75  74  96 CALM      29.95R
$$

ARZ056-057-069-261200-
SOUTHEAST ARKANSAS

CITY           SKY/WX    TMP DP  RH WIND       PRES   REMARKS
PINE BLUFF     CLEAR     76  75  97 CALM      29.97R
STUTTGART      CLEAR     79  72  78 CALM      29.98S
MONTICELLO     CLEAR     77  74  90 CALM      29.98R

$$





USA.gov is the U.S. government's official web portal to all federal, state and local government web resources and services.